GFSFLT1_925_rhum_096.txt.gz
RH
61 63 64 59 49 21 14 17 54 77 96 100 98 92 81 76 80 80 88 99 90 90 92 100 98 99 100 100 98 100 99 100
63 65 71 77 66 57 20 17 45 93 97 100 100 99 100 100 95 81 82 97 86 93 96 100 100 99 99 98 99 100 100 100
65 67 74 80 84 79 68 26 35 84 93 98 99 100 100 100 100 100 82 91 87 94 100 99 98 99 100 97 98 100 100 100
74 71 74 75 82 89 88 76 57 71 93 100 99 100 99 99 100 99 99 97 88 98 100 99 98 99 100 99 100 99 99 100
75 75 73 74 80 89 92 95 82 89 99 96 97 91 90 96 100 96 92 92 97 94 100 100 100 99 99 99 99 99 100 99
80 72 72 76 82 89 94 97 94 91 100 98 99 94 90 99 88 32 42 99 86 94 98 98 100 100 100 99 100 100 98 99
73 70 74 79 85 92 95 99 100 96 96 99 100 93 95 100 100 96 100 100 83 97 98 93 100 99 100 99 100 100 100 100
76 74 76 81 86 93 97 99 99 99 92 97 100 94 94 95 100 100 99 100 99 100 88 98 99 100 100 100 99 100 100 100
77 80 79 83 88 94 98 100 100 97 93 96 99 97 94 89 96 99 100 100 100 100 98 99 100 98 98 99 100 94 96 100
78 80 84 85 91 96 99 100 100 100 99 98 100 93 92 93 97 99 100 100 99 98 97 97 99 94 99 100 96 99 100 99
79 77 82 87 93 96 99 100 100 100 100 100 100 100 95 93 91 100 100 100 100 97 98 98 100 100 98 98 98 100 100 100
81 82 83 88 93 96 98 100 100 100 100 99 99 100 99 98 95 100 95 88 97 99 99 99 99 99 100 100 99 99 100 100
80 80 82 90 93 96 97 99 100 100 100 100 100 100 91 75 100 95 90 81 90 97 98 100 99 99 100 100 100 96 100 100
82 81 84 90 95 97 97 98 100 100 100 100 100 96 99 99 97 91 91 96 100 100 100 99 100 99 99 99 100 100 100 99
86 87 88 91 95 98 98 98 100 100 100 100 100 100 100 100 100 100 100 100 100 100 100 100 100 100 100 100 100 100 99 100
92 91 91 95 96 98 98 99 100 100 100 100 100 100 100 100 100 100 100 100 100 100 100 100 100 99 99 99 99 99 100 100
93 88 91 96 97 98 98 99 100 100 100 100 100 99 97 99 99 100 100 100 100 100 100 100 100 100 100 100 99 100 100 100
95 96 96 97 99 100 99 100 99 100 100 100 100 99 100 94 97 100 100 100 100 100 100 100 100 100 100 100 100 100 100 100
96 96 96 99 100 100 100 100 100 100 100 100 100 100 100 96 96 99 100 100 100 100 100 100 100 100 100 100 100 100 100 100

GFSFLT1_925_rhum_102.txt.gz
RH
38 40 44 47 49 54 54 56 62 63 57 46 63 64 90 81 81 78 85 99 97 99 96 99 99 98 99 99 100 100 99 97
35 40 44 48 50 55 56 58 62 65 58 41 52 62 81 78 72 78 87 96 99 99 99 100 99 100 99 98 99 99 99 99
38 42 46 51 54 58 62 62 64 66 65 57 45 53 59 70 71 78 89 95 100 99 100 99 100 100 99 98 100 100 99 97
41 43 48 53 56 61 66 68 71 74 75 70 60 60 59 72 85 91 94 96 99 100 100 98 100 100 100 99 99 99 99 100
43 44 49 55 60 67 74 77 78 78 82 75 66 56 55 62 71 89 92 99 100 100 98 98 98 100 99 98 96 99 99 98
46 46 50 54 65 72 79 84 85 86 89 90 87 66 63 56 64 83 98 100 100 100 100 95 100 98 98 98 100 94 97 99
45 46 50 55 64 75 83 88 90 92 94 95 94 85 65 58 62 83 99 100 100 100 100 100 100 100 100 98 98 93 97 98
47 47 50 59 68 77 86 92 94 95 97 99 97 91 71 69 65 78 99 98 100 100 100 100 86 62 77 100 98 96 98 99
48 49 55 62 72 79 89 96 96 97 99 100 100 85 68 75 74 82 90 95 91 99 99 85 75 47 62 100 98 96 94 98
51 50 59 66 75 82 95 97 97 97 100 100 100 85 77 87 87 85 86 79 78 82 92 95 89 96 98 100 99 96 100 100
52 53 62 69 77 84 95 97 97 99 100 100 100 92 95 94 90 88 87 77 82 90 96 98 98 99 100 100 100 98 99 100
55 56 62 68 74 83 93 95 98 99 100 100 100 100 97 98 99 100 97 98 99 90 83 97 99 100 100 100 99 99 99 99
56 57 63 68 72 81 89 98 98 99 100 100 100 100 100 100 100 100 100 100 100 100 95 98 96 100 100 99 99 98 99 100
57 57 62 68 72 79 90 97 100 100 100 100 100 100 100 99 100 100 99 99 99 97 99 76 84 100 98 99 99 100 100 100
63 62 62 68 73 79 91 98 99 98 100 100 100 100 100 100 100 100 99 100 100 98 98 98 98 100 100 100 100 100 100 99
67 66 66 69 75 81 84 94 99 99 100 100 100 100 99 100 99 100 100 100 100 100 100 100 100 100 100 100 100 99 100 100
68 67 69 75 81 85 86 92 100 100 98 100 100 99 100 100 99 98 99 100 100 100 100 100 100 100 100 100 100 100 100 100
81 76 79 82 90 91 91 99 99 99 98 99 100 100 100 100 100 96 97 99 99 100 100 100 100 99 100 100 100 100 100 100
84 86 87 91 93 93 90 90 97 98 98 99 100 100 100 100 100 100 98 96 96 98 100 100 100 100 100 100 100 100 100 100

GFSFLT1_925_rhum_108.txt.gz
RH
27 26 32 35 39 43 46 50 53 54 53 52 53 52 42 45 60 66 64 72 84 83 90 82 81 78 77 86 86 84 87 83
27 32 37 40 44 49 53 54 57 61 59 57 54 52 50 42 43 57 61 65 78 84 87 86 88 86 81 92 89 86 91 89
29 32 36 41 45 52 54 57 61 65 65 68 68 67 66 63 60 53 58 57 67 82 86 90 88 90 88 94 95 98 92 83
30 31 37 40 45 51 56 60 64 67 67 70 70 69 67 62 56 46 48 60 58 71 88 92 89 86 90 94 98 97 94 99
31 34 37 39 47 52 58 63 66 66 72 78 82 82 79 77 74 67 50 58 61 65 77 90 94 73 87 85 91 95 86 95
35 36 38 41 48 56 63 69 70 74 78 83 88 90 88 85 82 77 70 60 63 64 82 91 94 92 84 89 93 94 90 88
34 36 40 45 51 59 68 74 77 77 80 86 92 95 95 94 92 88 81 71 59 67 69 92 96 94 95 90 67 92 95 86
38 40 44 49 54 61 69 76 78 79 83 90 95 98 99 99 98 96 91 84 75 69 68 86 99 100 90 86 90 98 91 94
41 42 47 50 56 63 72 77 80 82 88 93 98 100 100 100 100 99 98 89 80 68 83 74 80 94 100 98 86 94 87 86
43 41 47 52 58 63 72 81 84 86 90 96 99 100 100 100 100 100 100 95 85 74 89 85 100 91 87 97 99 96 73 67
40 42 48 54 60 64 70 80 86 91 93 96 98 100 100 100 100 100 100 92 84 75 92 99 100 99 97 99 86 81 88 96
43 45 49 56 60 66 72 80 90 96 97 95 99 100 100 100 100 100 99 99 75 78 90 98 100 100 100 100 96 96 94 90
45 47 51 57 62 66 73 82 88 96 98 97 98 100 100 100 100 100 100 100 98 77 82 87 99 100 97 97 99 95 92 91
50 51 55 60 65 70 75 84 90 95 98 98 98 100 100 100 100 100 100 99 98 97 73 73 94 100 97 99 95 90 78 65
56 58 59 64 69 73 76 82 89 95 98 99 99 100 100 100 100 100 100 100 98 100 100 87 83 89 99 96 89 90 82 88
62 64 64 70 75 78 78 84 90 94 97 99 100 100 100 100 100 100 100 100 100 100 99 100 99 99 99 99 100 94 72 72
66 67 70 78 82 82 84 88 94 97 99 99 100 100 100 100 100 100 100 100 98 99 98 99 100 100 100 99 97 100 98 99
72 75 79 85 97 96 93 92 96 99 100 99 100 100 100 100 100 100 100 100 100 100 100 98 98 99 100 100 100 100 100 100
79 86 90 96 98 99 97 91 95 98 98 99 100 100 100 100 99 99 98 99 100 100 100 100 99 98 98 100 99 100 100 100

GFSFLT1_925_rhum_111.txt.gz
RH
36 42 44 46 49 52 54 56 58 59 60 58 55 54 52 53 54 45 51 70 70 72 69 70 70 74 75 77 73 70 78 81
45 45 44 48 50 52 56 60 64 66 68 69 68 69 64 56 53 55 52 66 70 76 82 74 70 78 81 77 77 87 88 85
46 48 46 51 54 57 60 65 67 68 75 75 78 79 75 71 65 54 52 51 52 74 81 94 93 84 87 84 77 90 95 91
46 47 56 55 58 62 66 68 70 74 75 79 81 81 81 84 80 70 63 69 68 64 70 85 95 90 83 79 97 87 97 96
44 48 56 61 63 64 67 72 75 77 78 82 87 91 92 91 92 89 84 69 74 74 74 77 78 90 80 78 81 72 66 91
48 51 55 60 62 67 70 76 79 80 82 86 90 92 94 94 94 95 94 91 83 82 74 75 73 80 76 84 87 63 86 90
48 50 55 59 64 69 74 80 81 82 86 89 94 94 95 96 97 97 97 98 97 90 83 74 75 74 77 92 81 87 95 86
53 54 57 63 68 73 76 82 84 86 89 91 96 99 99 100 99 98 98 98 99 100 94 73 73 78 75 78 83 78 80 96
54 56 62 64 70 76 79 82 87 90 94 96 97 99 100 100 100 100 100 100 100 99 100 89 80 57 63 86 88 71 79 90
53 58 62 66 70 76 81 83 92 94 97 98 98 98 100 100 100 100 100 100 100 100 100 98 88 54 48 90 79 83 88 75
54 58 63 67 69 73 82 85 89 94 97 98 99 100 100 100 100 100 100 100 100 100 100 98 92 73 46 85 80 83 98 99
57 60 64 69 72 74 82 86 91 95 97 99 100 100 100 100 100 100 100 100 100 100 99 100 94 87 71 81 91 100 97 98
59 62 66 70 75 77 80 86 92 96 97 99 100 100 100 100 100 100 100 100 100 100 100 100 88 71 61 70 98 98 97 100
64 66 70 74 77 78 82 88 94 96 97 99 100 100 100 100 100 100 100 100 100 100 100 100 100 78 81 92 100 99 96 96
67 69 72 78 79 83 85 90 94 98 98 100 100 100 100 100 100 100 100 100 100 100 100 100 100 99 99 100 100 100 100 99
68 69 74 80 82 90 89 93 96 98 99 100 100 100 100 100 100 100 100 100 100 100 100 100 100 98 100 100 99 100 99 97
71 72 77 84 89 96 98 99 99 99 100 100 100 100 100 100 99 100 100 100 100 100 100 100 100 100 99 99 98 100 99 91
79 85 90 94 100 100 100 98 98 99 100 99 99 100 100 100 100 99 100 99 100 100 100 100 100 100 100 93 99 100 100 100
88 96 99 100 98 99 97 96 98 99 99 100 99 100 100 100 100 100 100 99 99 99 100 100 100 100 100 97 95 95 100 100

GFSFLT1_925_rhum_114.txt.gz
RH
56 63 61 59 58 56 55 55 55 52 52 54 52 54 51 53 54 55 56 58 60 91 84 72 70 70 76 90 95 92 87 86
59 62 63 65 64 62 63 60 65 62 67 67 66 72 65 60 58 59 57 57 58 60 61 94 83 77 73 72 72 96 96 88
60 67 71 74 71 68 67 67 68 70 74 78 81 77 72 72 70 64 63 64 62 64 70 74 88 97 89 94 82 77 83 84
62 68 76 76 76 72 70 71 74 77 78 80 82 80 82 80 75 73 68 71 72 71 67 70 73 95 100 96 91 79 73 94
62 68 76 78 78 73 76 77 80 82 79 84 91 96 96 92 95 95 90 84 78 81 84 76 73 70 86 97 99 92 82 84
64 68 74 76 76 78 78 78 76 82 88 89 93 99 99 97 96 98 98 98 97 88 88 92 84 68 67 97 100 98 86 84
62 66 72 77 79 79 84 85 81 87 92 93 95 96 98 98 97 98 99 99 98 100 100 100 98 92 76 87 98 100 90 78
66 68 72 76 82 81 81 89 90 90 94 97 97 96 99 100 99 99 99 100 100 100 100 100 100 100 97 92 100 100 99 96
67 68 71 74 82 83 85 87 92 92 95 97 99 99 100 100 100 100 100 100 100 100 100 100 100 100 100 96 96 97 96 95
75 74 74 74 80 86 86 90 93 96 96 100 100 100 100 100 100 100 100 100 100 100 100 100 100 100 100 99 100 90 96 88
77 74 74 76 80 83 87 91 95 98 99 100 99 100 100 100 100 100 100 100 100 99 99 100 100 100 100 100 96 94 95 82
69 74 78 80 79 82 87 92 96 98 98 98 98 98 99 100 100 100 100 100 100 100 100 100 100 100 100 100 94 91 91 82
69 73 76 79 81 84 88 95 98 99 99 98 98 98 98 99 100 100 100 100 100 100 100 100 100 100 100 100 99 86 85 97
73 71 77 78 84 86 91 97 99 100 99 98 99 99 99 99 100 100 100 100 100 100 100 100 100 100 100 100 100 86 78 89
70 73 72 80 87 89 94 98 99 100 98 99 100 99 100 99 99 100 100 100 100 100 100 100 100 100 99 100 100 94 99 97
71 75 75 84 86 93 97 98 99 100 98 99 100 100 99 98 100 100 100 100 100 100 100 100 100 100 100 99 100 96 73 94
76 75 78 83 86 92 95 98 100 100 99 100 100 100 100 100 100 100 100 100 100 100 100 100 100 100 100 99 100 100 99 100
85 86 90 95 99 99 99 98 100 100 100 100 100 100 100 100 100 100 99 98 99 100 100 100 100 100 100 100 100 99 99 98
88 95 98 98 98 98 100 100 100 94 96 99 100 99 100 98 98 99 96 98 98 99 98 99 99 100 98 99 100 99 93 95

GFSFLT1_925_rhum_120.txt.gz
RH
82 82 78 76 75 71 67 64 62 61 61 55 48 46 51 54 56 57 59 62 62 60 62 65 68 76 93 100 99 89 86 100
82 84 84 82 80 80 80 72 71 69 64 59 54 56 59 60 60 63 65 67 68 69 68 65 68 70 71 94 100 100 98 96
76 81 83 83 84 81 83 88 85 80 82 83 79 74 70 70 68 70 71 76 81 81 82 80 79 79 73 66 90 100 100 94
76 77 86 89 89 89 85 86 90 91 89 81 69 74 77 78 74 73 78 83 89 93 95 97 98 97 93 80 76 80 100 97
76 81 83 86 89 92 92 95 80 94 96 98 95 97 95 96 98 95 87 87 89 96 99 99 100 99 98 100 97 90 90 99
95 96 89 89 93 94 92 92 93 92 95 100 99 99 98 98 98 100 99 97 99 100 99 99 98 99 99 99 99 99 99 97
94 94 97 97 94 97 97 95 95 93 98 99 100 100 98 98 99 99 100 100 100 99 99 99 99 100 99 99 99 99 98 99
96 94 93 94 93 94 98 98 98 100 99 98 98 100 100 100 100 100 99 100 100 100 98 99 99 99 99 100 100 100 99 99
96 98 100 100 97 92 86 92 96 98 99 98 99 100 100 100 100 100 100 100 100 99 98 99 99 98 100 100 99 99 99 100
92 96 99 100 100 99 95 99 99 98 99 100 99 100 100 100 100 100 100 100 100 99 99 99 99 98 99 99 99 99 100 100
87 89 94 97 100 100 99 100 100 100 100 99 100 100 99 99 99 99 100 100 100 100 100 99 99 99 100 99 100 99 100 100
86 88 91 96 96 97 99 99 100 99 98 99 100 99 98 98 100 99 100 98 98 100 100 100 100 100 99 99 100 100 100 99
81 78 80 83 92 99 99 99 98 99 100 99 99 99 100 100 100 100 99 100 100 100 100 100 100 100 100 100 100 100 100 100
77 76 79 82 90 93 98 99 99 98 99 100 100 100 100 100 100 100 100 100 100 100 100 100 100 100 100 100 100 100 100 100
75 72 82 85 89 93 96 99 99 99 100 100 100 100 100 100 99 99 100 100 100 100 100 100 100 100 100 100 100 100 100 100
76 74 83 88 86 98 98 99 99 96 96 93 93 94 96 99 100 98 100 100 100 100 100 100 100 100 100 100 100 100 100 100
74 76 81 89 92 94 99 98 93 85 91 89 79 77 80 83 85 91 88 94 100 100 100 100 100 100 100 100 100 100 100 100
79 86 92 96 99 99 100 95 94 94 93 93 85 82 82 76 75 76 83 93 100 100 100 100 100 100 100 100 100 100 100 100
86 93 96 97 99 98 98 95 92 91 93 97 92 86 86 86 79 80 84 93 99 100 100 100 100 100 100 100 100 100 100 100